Погода в Мугрееве-Никольском

Россия / Ивановская область     56°37′53″N   42°14′06″E
темп.,
°C
ветер,
м/с
пор.,
м/с
влажн.,
%
обл.,
%
осадки,
мм/ч
давл.,
гПа
погр.,
м
8 марта, пн
пн800:00−10з3385100 0.0 99152
03:00−12юз228967 0.1 99330
06:00−11зюз2596100 1.2 994114
09:00−10з259399 1.2 995245
12:00−7з2386100 0.0 996535
15:00−6сз4683100 0.2 998821
18:00−10зсз379276 0.1 1002141
21:00−12ссз379562 0.1 1005152
9 марта, вт
вт900:00−14ссз369664 0.1 1007139
03:00−18ссз339773 0.1 101058
06:00−19ссз359784 0.1 1011110
09:00−18ссз359586 0.1 1013251
12:00−14ссз348998 0.0 1014470
15:00−13ссз458899 0.1 1015627
18:00−16ссз3894100 0.1 1016289
21:00−19ссз4996100 0.1 1019258
10 марта, ср
ср1000:00−23ссз379898 0.0 1020154
03:00−26ссз369878 0.1 1022107
06:00−29ссз369837 0.0 1024105
09:00−25с369419 0.0 1025253
12:00−19ссз358527 0.0 1026507
15:00−16ссз468134 0.0 1026755
18:00−20сз369488 0.0 1026113
21:00−22сз349644 0.0 102769
11 марта, чт
чт1100:00−23сз33980 0.0 102865
03:00−24зсз33990 0.0 102965
06:00−24зсз359816 0.0 102989
09:00−19зсз369513 0.0 1030232
12:00−13зсз369126 0.0 1030320
15:00−9зсз358613 0.0 1029418
18:00−13зсз23920 0.0 103022
21:00−16з23960 0.0 103121
12 марта, пт
пт1200:00−18зюз23920 0.0 103220
03:00−19юз23950 0.0 103131
06:00−20ююз34940 0.0 103161
09:00−16ююз48840 0.0 1031300
12:00−10ю510760 0.0 1029590
15:00−8ю611740 0.0 1027788
18:00−11ю6137867 0.0 1024525
21:00−12ю7167583 0.0 1023527